Regional Weather Roundup
Issued by NWS

Home | Current Version | Previous Version | Text Only | Print | Product List | Glossary On
Versions: 1 2 3 4 5 6 7 8 9 10 11 12 13 14 15 16 17 18 19 20 21 22 23 24 25 26 27 28 29 30 31 32 33 34 35 36 37 38 39 40 41 42 43 44 45 46 47 48 49 50
000
ASUS43 KLSX 261210
RWRMO

WEATHER SUMMARY FOR MISSOURI
NATIONAL WEATHER SERVICE SPRINGFIELD MO
700 AM CDT THU APR 26 2018

NOTE: "FAIR" INDICATES FEW OR NO CLOUDS BELOW 12,000 FEET WITH NO
       SIGNIFICANT WEATHER AND/OR OBSTRUCTIONS TO VISIBILITY.
       CURRENT SKY AND/OR WEATHER CONDITIONS ARE NOT AVAILABLE FOR
       CHILLICOTHE AND FARMINGTON.

MOZ001>031-035>038-043-044-053-054-261300-
...NORTHERN AND WESTERN MISSOURI...

CITY           SKY/WX    TMP DP  RH WIND       PRES   REMARKS
KANSAS CTY INT CLOUDY    40  38  93 W7        29.99R FOG
6HR MIN TEMP:  36; 6HR MAX TEMP:  45;

KANSAS C DTWN  CLOUDY    42  40  92 CALM      29.99R
6HR MIN TEMP:  40; 6HR MAX TEMP:  47;

LEE`S SUMMIT   CLEAR     41  41 100 SW3       29.99R FOG
6HR MIN TEMP:  40; 6HR MAX TEMP:  45;

ST JOSEPH      FOG       32  32 100 N3        30.01R VSB 1/4
6HR MIN TEMP:  31; 6HR MAX TEMP:  39;

CHILLICOTHE      N/A     35  34  96 CALM      29.99R
6HR MIN TEMP:  33; 6HR MAX TEMP:  42;

KIRKSVILLE     CLOUDY    40  36  86 NW7       29.97R
6HR MIN TEMP:  35; 6HR MAX TEMP:  41;


$$
MOZ066>068-077>081-088>096-101>105-261300-
...SOUTHWEST MISSOURI...

CITY           SKY/WX    TMP DP  RH WIND       PRES   REMARKS
SPRINGFIELD    FOG       49  47  93 N9        29.96R VSB 1/4
6HR MIN TEMP:  49; 6HR MAX TEMP:  50;

JOPLIN         CLOUDY    49  47  93 N7        29.99R
6HR MIN TEMP:  49; 6HR MAX TEMP:  51; 6HR PCP: TRACE;

BRANSON        CLOUDY    48  48 100 NW6       29.96R FOG

$$
MOZ032>034-039>042-045>050-055>058-069>072-261300-
...CENTRAL MISSOURI...

CITY           SKY/WX    TMP DP  RH WIND       PRES   REMARKS
COLUMBIA       MOCLDY    47  47 100 NW6       29.96R FOG
6HR MIN TEMP:  46; 6HR MAX TEMP:  50;

JEFFERSON CITY CLOUDY    49  47  93 NW5       29.96R FOG
6HR MIN TEMP:  48; 6HR MAX TEMP:  50; 6HR PCP:  0.01;

ROLLA          CLOUDY    47  46  97 N8        29.96R FOG
6HR MIN TEMP:  47; 6HR MAX TEMP:  49; 6HR PCP:  0.02;

SEDALIA        CLEAR     43  43 100 W5        29.99R FOG
6HR MIN TEMP:  43; 6HR MAX TEMP:  50;

WHITEMAN AFB   PTCLDY    43  43  99 S3        29.95R
WARRENSBURG    CLEAR     41  39  93 W3        29.99R
OSAGE BEACH    CLOUDY    47  47 100 CALM      29.98R FOG

$$
MOZ051-052-059>065-261300-
...EAST CENTRAL MISSOURI...

CITY           SKY/WX    TMP DP  RH WIND       PRES   REMARKS
ST LOUIS INTL  MOCLDY    52  43  71 NE6       29.95R
6HR MIN TEMP:  50; 6HR MAX TEMP:  56; 6HR PCP: TRACE;

SPIRIT OF STL  CLOUDY    52  45  77 N8        29.95R
6HR MIN TEMP:  49; 6HR MAX TEMP:  53; 6HR PCP:  0.01;

ST CHARLES     MOCLDY    50  41  71 N6        29.95R
6HR MIN TEMP:  48; 6HR MAX TEMP:  57;


$$
MOZ072>076-082>087-097>100-106>115-261300-
...SOUTH CENTRAL AND SOUTHEAST MISSOURI...

CITY           SKY/WX    TMP DP  RH WIND       PRES   REMARKS
CAPE GIRARDEAU CLOUDY    55  51  86 NE7       29.89R
6HR MIN TEMP:  55; 6HR MAX TEMP:  57;

FARMINGTON     CLOUDY    50  49  96 MISG      29.93R
6HR MIN TEMP:  50; 6HR MAX TEMP:  52; 6HR PCP:  0.11;

POPLAR BLUFF   CLOUDY    55  53  93 N9        29.89R
6HR MIN TEMP:  55; 6HR MAX TEMP:  56; 6HR PCP: TRACE;

WEST PLAINS    PTCLDY    49  47  93 N3        29.93R FOG
6HR MIN TEMP:  49; 6HR MAX TEMP:  51;


$$



USA.gov is the U.S. government's official web portal to all federal, state and local government web resources and services.